TimeEST,TemperatureF,Dew PointF,Humidity,Sea Level PressureIn,VisibilityMPH,Wind Direction,Wind SpeedMPH,Gust SpeedMPH,PrecipitationIn,Events,Conditions,WindDirDegrees,DateUTC
12:15 AM,18.1,9.1,68,29.83,3.0,NW,17.3,21.9,N/A,Snow,Light Snow,320,2013-02-17 05:15:00
12:35 AM,18.0,7.5,64,29.83,10.0,NW,10.4,23.0,N/A,,Overcast,320,2013-02-17 05:35:00
12:55 AM,17.4,10.0,73,29.83,2.5,NW,5.8,20.7,N/A,Snow,Light Snow,320,2013-02-17 05:55:00
1:15 AM,17.2,9.7,72,29.83,1.0,WNW,19.6,31.1,N/A,Snow,Light Snow,290,2013-02-17 06:15:00
1:35 AM,17.6,5.9,60,29.83,10.0,NW,17.3,33.4,N/A,,Overcast,310,2013-02-17 06:35:00
2:15 AM,17.4,5.4,59,29.83,7.0,WNW,18.4,26.5,N/A,,Overcast,300,2013-02-17 07:15:00
2:35 AM,16.7,7.0,66,29.83,1.8,NW,12.7,27.6,N/A,Snow,Light Snow,310,2013-02-17 07:35:00
2:55 AM,15.8,7.3,69,29.83,4.0,NW,12.7,25.3,N/A,Snow,Light Snow,320,2013-02-17 07:55:00
3:15 AM,15.8,4.6,61,29.82,7.0,WNW,16.1,34.5,N/A,,Mostly Cloudy,300,2013-02-17 08:15:00
3:35 AM,15.8,3.2,58,29.82,10.0,WNW,21.9,31.1,N/A,,Scattered Clouds,300,2013-02-17 08:35:00
3:55 AM,15.8,3.2,58,29.82,10.0,NW,23.0,29.9,N/A,,Mostly Cloudy,310,2013-02-17 08:55:00
4:15 AM,15.4,2.3,56,29.82,7.0,WNW,19.6,36.8,N/A,,Overcast,300,2013-02-17 09:15:00
4:35 AM,15.4,2.3,56,29.83,10.0,WNW,18.4,33.4,N/A,,Overcast,300,2013-02-17 09:35:00
4:55 AM,14.4,7.5,74,29.84,1.0,NW,13.8,27.6,N/A,Snow,Light Snow,320,2013-02-17 09:55:00
5:15 AM,13.5,6.4,74,29.85,1.5,NNW,19.6,35.7,N/A,Snow,Light Snow,330,2013-02-17 10:15:00
5:35 AM,13.5,4.1,66,29.85,2.5,NW,18.4,35.7,N/A,Snow,Light Snow,310,2013-02-17 10:35:00
5:55 AM,13.6,-0.4,54,29.86,4.0,NW,20.7,38.0,N/A,,Haze,310,2013-02-17 10:55:00
6:15 AM,13.8,-0.6,53,29.85,10.0,WNW,31.1,44.9,N/A,,Overcast,300,2013-02-17 11:15:00
6:35 AM,13.8,0.9,56,29.87,7.0,NW,18.4,39.1,N/A,,Overcast,310,2013-02-17 11:35:00
6:55 AM,13.6,3.2,63,29.88,4.0,NW,15.0,27.6,N/A,Snow,Light Snow,310,2013-02-17 11:55:00
7:15 AM,13.8,3.9,65,29.88,4.0,WNW,19.6,34.5,N/A,Snow,Light Snow,300,2013-02-17 12:15:00
7:35 AM,13.8,4.3,66,29.88,1.8,WNW,16.1,35.7,N/A,Snow,Light Snow,300,2013-02-17 12:35:00
7:55 AM,14.4,4.1,64,29.88,2.5,NW,13.8,29.9,N/A,Snow,Light Snow,320,2013-02-17 12:55:00
8:15 AM,14.9,3.9,62,29.88,4.0,WNW,15.0,46.0,N/A,Snow,Light Snow,300,2013-02-17 13:15:00
8:35 AM,15.4,3.6,59,29.88,3.0,NW,20.7,36.8,N/A,Snow,Light Snow,310,2013-02-17 13:35:00
8:55 AM,16.0,2.5,55,29.88,7.0,NW,21.9,51.8,N/A,,Overcast,310,2013-02-17 13:55:00
9:15 AM,16.7,0.9,50,29.89,7.0,NW,26.5,40.3,N/A,,Overcast,310,2013-02-17 14:15:00
9:35 AM,17.2,1.9,51,29.90,10.0,WNW,19.6,33.4,N/A,,Overcast,290,2013-02-17 14:35:00
9:55 AM,17.8,3.0,53,29.91,10.0,WNW,18.4,35.7,N/A,,Overcast,290,2013-02-17 14:55:00
10:15 AM,18.0,5.0,57,29.93,7.0,WNW,9.2,26.5,N/A,,Overcast,300,2013-02-17 15:15:00
10:35 AM,18.7,4.6,54,29.93,10.0,WNW,16.1,24.2,N/A,,Overcast,300,2013-02-17 15:35:00
10:55 AM,19.2,5.0,54,29.94,7.0,WNW,13.8,32.2,N/A,,Overcast,290,2013-02-17 15:55:00
11:15 AM,19.9,5.2,53,29.94,10.0,WNW,15.0,26.5,N/A,,Overcast,300,2013-02-17 16:15:00
11:35 AM,20.7,1.6,44,29.93,10.0,WNW,25.3,48.3,N/A,,Scattered Clouds,290,2013-02-17 16:35:00
11:55 AM,21.4,-0.0,39,29.93,10.0,WNW,29.9,47.2,N/A,,Scattered Clouds,300,2013-02-17 16:55:00
12:15 PM,22.1,-0.6,37,29.94,10.0,WNW,15.0,32.2,N/A,,Clear,290,2013-02-17 17:15:00
12:35 PM,22.8,0.1,37,29.94,10.0,West,20.7,47.2,N/A,,Scattered Clouds,280,2013-02-17 17:35:00
12:55 PM,23.7,1.2,38,29.94,10.0,West,19.6,32.2,N/A,,Scattered Clouds,270,2013-02-17 17:55:00
1:15 PM,24.4,1.9,38,29.94,10.0,West,21.9,39.1,N/A,,Scattered Clouds,270,2013-02-17 18:15:00
2:15 PM,25.5,0.7,34,29.94,10.0,West,20.7,38.0,N/A,,Scattered Clouds,280,2013-02-17 19:15:00
2:35 PM,26.1,1.0,34,29.94,10.0,West,23.0,32.2,N/A,,Scattered Clouds,280,2013-02-17 19:35:00
2:55 PM,26.1,0.9,34,29.95,10.0,West,21.9,32.2,N/A,,Clear,280,2013-02-17 19:55:00
3:15 PM,26.8,1.0,33,29.96,10.0,WNW,8.1,29.9,N/A,,Scattered Clouds,300,2013-02-17 20:15:00
3:35 PM,27.0,1.6,34,29.97,10.0,WNW,18.4,31.1,N/A,,Clear,300,2013-02-17 20:35:00
4:15 PM,26.8,1.6,34,29.98,10.0,WNW,16.1,34.5,N/A,,Scattered Clouds,300,2013-02-17 21:15:00
4:35 PM,27.1,1.6,33,29.99,10.0,West,17.3,28.8,N/A,,Scattered Clouds,280,2013-02-17 21:35:00
4:55 PM,26.8,1.2,33,30.00,10.0,West,13.8,25.3,N/A,,Clear,260,2013-02-17 21:55:00
5:15 PM,26.6,1.0,33,30.01,10.0,West,10.4,25.3,N/A,,Clear,280,2013-02-17 22:15:00
5:35 PM,26.1,1.4,35,30.01,10.0,WNW,16.1,26.5,N/A,,Clear,300,2013-02-17 22:35:00
5:55 PM,25.7,0.7,34,30.01,10.0,WNW,18.4,27.6,N/A,,Clear,300,2013-02-17 22:55:00
6:15 PM,25.5,1.8,36,30.02,10.0,West,15.0,19.6,N/A,,Clear,280,2013-02-17 23:15:00
6:35 PM,25.0,1.6,36,30.03,10.0,WNW,10.4,18.4,N/A,,Clear,290,2013-02-17 23:35:00
6:55 PM,24.8,2.1,38,30.03,10.0,WNW,15.0,28.8,N/A,,Clear,300,2013-02-17 23:55:00
7:15 PM,24.6,1.8,37,30.04,10.0,West,12.7,21.9,N/A,,Clear,280,2013-02-18 00:15:00
7:35 PM,24.6,1.9,38,30.04,10.0,WNW,19.6,27.6,N/A,,Clear,300,2013-02-18 00:35:00
8:15 PM,24.6,2.1,38,30.04,10.0,WNW,19.6,28.8,N/A,,Clear,300,2013-02-18 01:15:00
8:35 PM,24.6,1.9,38,30.05,10.0,NW,17.3,27.6,N/A,,Clear,310,2013-02-18 01:35:00
8:55 PM,24.6,2.1,38,30.05,10.0,NW,11.5,21.9,N/A,,Clear,310,2013-02-18 01:55:00
9:15 PM,24.6,2.1,38,30.06,10.0,WNW,13.8,27.6,N/A,,Clear,300,2013-02-18 02:15:00
9:35 PM,24.6,2.3,38,30.06,10.0,WNW,17.3,27.6,N/A,,Clear,300,2013-02-18 02:35:00
9:55 PM,24.6,2.5,39,30.06,10.0,WNW,21.9,31.1,N/A,,Clear,290,2013-02-18 02:55:00
10:15 PM,24.6,1.9,38,30.08,10.0,West,13.8,26.5,N/A,,Clear,280,2013-02-18 03:15:00
10:35 PM,25.0,-0.0,34,30.08,10.0,WNW,17.3,29.9,N/A,,Clear,300,2013-02-18 03:35:00
11:15 PM,24.8,-0.2,34,30.09,10.0,WNW,10.4,-,N/A,,Clear,290,2013-02-18 04:15:00
11:35 PM,25.0,-0.8,33,30.09,10.0,WNW,10.4,24.2,N/A,,Clear,290,2013-02-18 04:35:00
11:55 PM,25.3,-1.7,31,30.09,10.0,WNW,17.3,25.3,N/A,,Clear,300,2013-02-18 04:55:00